#timestamp,LO_Frequency,Hit 
1503201615.9,286047010.5,N
1503201635.7,286047010.4,N
1503201655.6,286047015.6,P
1503201675.4,286047010.3,N
1503201695.2,286047011.2,P
1503201715.1,286047010.8,P
1503201716.0,286047010.8,P
1503201735.8,286046999.9,N
1503201755.6,286046998.5,N
1503201775.5,286047000.3,N
1503201795.3,286046996.7,N
1503201815.1,286046996.5,N
1503201835.8,286046997.9,N
1503201855.7,286046998.6,N
1503201875.5,286047002.7,N
1503201895.3,286047000.6,N
1503201915.2,286047002.0,N
1503201935.0,286047004.2,N
1503201935.9,286047004.2,N
1503201955.7,286046999.0,N
1503201975.6,286046997.6,N
1503201995.4,286046995.6,N
1503202015.2,286046997.7,N
1503202035.1,286046999.6,N
1503202036.0,286046999.6,N
1503202055.8,286046998.5,N
1503202075.6,286046996.9,N
1503202095.5,286046996.8,N
1503202115.3,286046998.2,N
1503202135.1,286047000.9,N
1503202155.9,286046999.0,N
1503202175.7,286046996.8,N
1503202195.5,286046998.1,N
1503202215.3,286046995.6,N
1503202235.2,286046994.2,N
1503202255.0,286046993.3,N
1503202255.9,286046993.3,N
1503202275.7,286046996.2,N
1503202295.6,286046997.8,N
1503202315.4,286046998.3,N
1503202335.2,286047002.3,N
1503202355.1,286047004.0,N
1503202356.0,286047004.0,N
1503202375.8,286047000.1,N
1503202395.6,286047000.4,N
1503202415.5,286046998.3,N
1503202435.3,286046997.3,N
1503202455.1,286046997.0,N
1503202475.9,286046998.4,N
1503202495.7,286046996.6,N
1503202515.5,286046993.4,N
1503202535.4,286046996.9,N
1503202555.2,286046999.4,N
1503202575.0,286046996.8,N
1503202575.9,286046996.8,N
1503202595.8,286046996.4,N
1503202615.6,286046996.9,N
1503202635.4,286046996.5,N
1503202655.2,286046996.1,N
1503202675.1,286046998.9,N
1503202676.0,286046998.9,N
1503202695.8,286046999.1,N
1503202715.6,286047002.3,N
1503202735.5,286047002.2,N
1503202755.3,286046997.5,N
1503202775.1,286046996.5,N
1503202795.9,286046997.9,N
1503202815.7,286046992.0,P
1503202835.5,286046992.5,N
1503202855.4,286046990.2,P
1503202875.2,286046990.2,P
1503202895.0,286046998.4,N
1503202896.0,286046998.4,N
1503202915.8,286046997.0,N
1503202935.6,286046995.4,N
1503202955.4,286046997.7,N
1503202975.3,286046993.3,N
1503202995.1,286046992.4,N
1503203015.8,286046994.3,N
1503203035.7,286046994.8,N
1503203055.5,286046990.2,P
1503203075.3,286046996.4,N
1503203095.2,286046993.6,N
1503203115.0,286046993.4,N
1503203115.9,286046993.4,P
1503203135.8,286047001.7,P
1503203155.6,286046999.7,N
1503203175.4,286046999.9,N
1503203195.2,286046997.8,N
1503203215.1,286046998.9,N
1503203216.0,286046998.9,N
1503203235.8,286046996.7,N
1503203255.6,286046997.2,N
1503203275.5,286046999.0,N
1503203295.3,286046998.6,N
1503203315.1,286046998.0,N
1503203335.9,286046993.5,N
1503203355.7,286046997.9,N
1503203375.5,286046997.5,N
1503203395.4,286046995.2,N
1503203415.2,286046994.2,N
1503203435.0,286046993.8,N
1503203435.9,286046993.8,N
1503203455.8,286046995.8,N
1503203475.6,286046995.2,N
1503203495.4,286047002.2,N
1503203515.2,286047002.1,N
1503203535.1,286047003.0,N
1503203536.0,286047003.0,N
1503203555.8,286047009.1,N
1503203575.6,286047006.8,N
1503203595.5,286047007.6,N
1503203615.3,286047008.8,N
1503203635.1,286047010.3,N
1503203655.9,286047012.2,N
1503203675.7,286047010.6,N
1503203695.5,286047012.1,N
1503203715.4,286047016.9,N
1503203735.2,286047012.9,N
1503203755.0,286047011.5,N
1503203755.9,286047011.5,N
1503203775.8,286047012.0,N
1503203795.6,286047011.6,N
1503203815.4,286047012.1,N
1503203835.3,286047011.0,N
1503203855.1,286047013.5,N
1503203856.0,286047013.5,N
1503203875.8,286047013.5,N
1503203895.7,286047013.6,N
1503203915.5,286047017.1,N
1503203935.3,286047018.8,N
1503203955.1,286047016.2,N
1503203975.9,286047018.1,N
1503203995.7,286047017.4,N
1503204015.6,286047019.5,P
1503204035.4,286047007.7,N
1503204055.2,286047009.0,N
1503204075.0,286047011.0,N
1503204076.0,286047011.0,N
1503204095.8,286047009.2,N
1503204115.6,286047010.5,N
1503204135.5,286047010.7,P
1503204155.3,286046995.1,P
1503204175.1,286046994.9,N
1503204195.8,286046999.0,N
1503204215.7,286046998.0,N
1503204235.5,286046997.0,N
1503204255.3,286047000.9,N
1503204275.2,286046998.9,N
1503204295.0,286046998.0,N
1503204295.9,286046998.0,N
1503204315.7,286046999.3,N
1503204335.6,286046997.9,N
1503204355.4,286046997.2,N
1503204375.2,286046998.6,N
1503204395.1,286046999.1,N
1503204396.0,286046999.1,N
1503204415.8,286046996.5,N
1503204435.6,286046995.5,N
1503204455.5,286046995.7,N
1503204475.3,286046993.5,N
1503204495.1,286046994.0,N
1503204515.9,286046993.7,N
1503204535.7,286046996.1,N
1503204555.5,286046993.7,N
1503204575.3,286046993.7,N
1503204595.2,286046995.6,N
1503204615.0,286046996.4,N
1503204615.9,286046996.4,N
1503204635.7,286046993.9,N
1503204655.6,286046993.7,N
1503204675.4,286046993.3,N
1503204695.2,286046994.3,N
1503204715.1,286046992.5,P
1503204716.0,286046992.5,P
1503204735.8,286046997.8,N
1503204755.6,286046995.5,N
1503204775.5,286047000.8,N
1503204795.3,286046999.0,N
1503204815.1,286046997.8,N
1503204835.9,286046996.8,N
1503204855.7,286046998.9,N
1503204875.5,286046996.5,N
1503204895.4,286046998.2,N
1503204915.2,286046998.3,N
1503204935.0,286047000.1,N
1503204935.9,286047000.1,N
1503204955.8,286046998.3,N
1503204975.6,286047002.0,N
1503204995.4,286047005.5,N
1503205015.3,286047005.9,N
1503205035.1,286047003.2,N
1503205036.0,286047003.2,N
1503205055.8,286046999.1,N
1503205075.7,286046995.1,N
1503205095.5,286046996.1,N
1503205115.3,286046993.8,N
1503205135.1,286046996.4,N
1503205155.9,286046992.5,N
1503205175.7,286046992.2,N
1503205195.5,286046992.9,N
